| time (UTC) | temp F | wind direction | speed MPH | gust MPH | rain 1hr in | rain 24hr in | rain mn in | humidity % | barometer mb |
| 20260507032716 | 46 | 17 | 0.0 | 0.0 | 0.00 | 0.55 | 0.00 | 97 | 1011.8 |
| 20260507032216 | 46 | 17 | 0.0 | 0.0 | 0.00 | 0.55 | 0.00 | 97 | 1011.8 |
| 20260507031716 | 46 | 17 | 0.0 | 0.0 | 0.00 | 0.55 | 0.00 | 97 | 1011.7 |
| 20260507031216 | 46 | 17 | 0.0 | 0.0 | 0.00 | 0.55 | 0.00 | 97 | 1011.7 |
| 20260507030715 | 46 | 17 | 0.0 | 0.0 | 0.00 | 0.55 | 0.00 | 97 | 1011.6 |
| 20260507030215 | 46 | 17 | 0.0 | 0.0 | 0.00 | 0.55 | 0.00 | 97 | 1011.6 |
| 20260507025715 | 46 | 17 | 0.0 | 0.0 | 0.00 | 0.55 | 0.00 | 97 | 1011.6 |
| 20260507025214 | 46 | 17 | 0.0 | 1.0 | 0.00 | 0.55 | 0.00 | 97 | 1011.5 |
| 20260507024714 | 46 | 17 | 0.0 | 0.0 | 0.00 | 0.55 | 0.00 | 97 | 1011.5 |
| 20260507024214 | 46 | 17 | 0.0 | 4.0 | 0.00 | 0.61 | 0.00 | 97 | 1011.5 |
| 20260507023714 | 46 | 354 | 0.0 | 2.0 | 0.00 | 0.61 | 0.00 | 97 | 1011.5 |
| 20260507023213 | 46 | 348 | 1.0 | 1.0 | 0.00 | 0.61 | 0.00 | 97 | 1011.5 |
| 20260507022713 | 46 | 348 | 1.0 | 3.0 | 0.00 | 0.61 | 0.00 | 97 | 1011.5 |
| 20260507022213 | 46 | 23 | 2.0 | 4.0 | 0.00 | 0.61 | 0.00 | 97 | 1011.4 |
| 20260507021712 | 46 | 8 | 2.0 | 4.0 | 0.00 | 0.61 | 0.00 | 97 | 1011.4 |
| 20260507021212 | 46 | 8 | 2.0 | 5.0 | 0.00 | 0.61 | 0.00 | 97 | 1011.4 |
| 20260507020712 | 46 | 6 | 1.0 | 3.0 | 0.00 | 0.61 | 0.00 | 97 | 1011.4 |
| 20260507020212 | 45 | 10 | 1.0 | 4.0 | 0.00 | 0.61 | 0.00 | 97 | 1011.4 |
| 20260507015711 | 45 | 20 | 1.0 | 3.0 | 0.00 | 0.61 | 0.00 | 97 | 1011.4 |
| 20260507015211 | 45 | 20 | 1.0 | 3.0 | 0.00 | 0.61 | 0.00 | 98 | 1011.2 |
| 20260507014711 | 45 | 20 | 2.0 | 4.0 | 0.00 | 0.61 | 0.00 | 98 | 1011.2 |
| 20260507014210 | 45 | 12 | 3.0 | 7.0 | 0.00 | 0.70 | 0.00 | 98 | 1011.2 |
| 20260507013710 | 45 | 22 | 2.0 | 7.0 | 0.00 | 0.70 | 0.00 | 98 | 1011.1 |
| 20260507013210 | 45 | 4 | 2.0 | 5.0 | 0.00 | 0.70 | 0.00 | 98 | 1011.2 |
| 20260507012710 | 45 | 35 | 2.0 | 4.0 | 0.00 | 0.70 | 0.00 | 98 | 1011.2 |
| 20260507012209 | 45 | 2 | 2.0 | 4.0 | 0.00 | 0.70 | 0.00 | 98 | 1011.1 |
| 20260507011709 | 45 | 27 | 1.0 | 3.0 | 0.00 | 0.70 | 0.00 | 98 | 1011.1 |
| 20260507011209 | 45 | 27 | 1.0 | 3.0 | 0.00 | 0.70 | 0.00 | 98 | 1011.1 |
| 20260507010709 | 45 | 27 | 1.0 | 4.0 | 0.00 | 0.70 | 0.00 | 98 | 1011.1 |
| 20260507010208 | 45 | 40 | 0.0 | 3.0 | 0.00 | 0.70 | 0.00 | 98 | 1011.1 |
| 20260507005708 | 45 | 347 | 0.0 | 2.0 | 0.00 | 0.70 | 0.00 | 98 | 1011.0 |
| 20260507005208 | 45 | 347 | 0.0 | 2.0 | 0.00 | 0.70 | 0.00 | 98 | 1011.0 |
| 20260507004707 | 45 | 347 | 0.0 | 1.0 | 0.00 | 0.70 | 0.00 | 98 | 1010.9 |
| 20260507004207 | 45 | 347 | 0.0 | 2.0 | 0.00 | 0.78 | 0.00 | 98 | 1010.9 |
| 20260507003707 | 45 | 347 | 1.0 | 3.0 | 0.00 | 0.78 | 0.00 | 98 | 1010.9 |
| 20260507003207 | 45 | 347 | 1.0 | 3.0 | 0.00 | 0.78 | 0.00 | 98 | 1010.8 |
| 20260507002706 | 45 | 347 | 1.0 | 3.0 | 0.00 | 0.78 | 0.00 | 98 | 1010.9 |
| 20260507002206 | 46 | 347 | 1.0 | 2.0 | 0.00 | 0.78 | 0.00 | 98 | 1010.8 |
| 20260507001706 | 46 | 347 | 1.0 | 2.0 | 0.00 | 0.78 | 0.00 | 98 | 1010.8 |
| 20260507001205 | 46 | 347 | 0.0 | 2.0 | 0.00 | 0.78 | 0.00 | 98 | 1010.9 |
| 20260507000706 | 46 | 347 | 0.0 | 2.0 | 0.00 | 0.78 | 0.00 | 98 | 1010.9 |
| 20260507000205 | 46 | 347 | 0.0 | 0.0 | 0.00 | 0.78 | 0.00 | 98 | 1010.9 |
| 20260506235705 | 46 | 347 | 0.0 | 0.0 | 0.00 | 0.78 | 0.00 | 98 | 1010.9 |
| 20260506235204 | 46 | 347 | 0.0 | 0.0 | 0.00 | 0.78 | 0.00 | 97 | 1010.9 |
| 20260506234704 | 46 | 347 | 0.0 | 0.0 | 0.00 | 0.78 | 0.00 | 97 | 1010.9 |
| 20260506234204 | 46 | 347 | 0.0 | 0.0 | 0.00 | 0.87 | 0.00 | 97 | 1010.9 |
| 20260506233703 | 46 | 347 | 0.0 | 1.0 | 0.00 | 0.87 | 0.00 | 97 | 1010.9 |
| 20260506233203 | 46 | 347 | 0.0 | 0.0 | 0.00 | 0.87 | 0.00 | 97 | 1010.9 |
| 20260506232703 | 46 | 347 | 0.0 | 0.0 | 0.00 | 0.87 | 0.00 | 97 | 1010.8 |
| 20260506232203 | 46 | 347 | 0.0 | 1.0 | 0.00 | 0.87 | 0.00 | 98 | 1010.6 |
| 20260506231702 | 46 | 347 | 0.0 | 0.0 | 0.00 | 0.87 | 0.00 | 98 | 1010.6 |
| 20260506231202 | 46 | 347 | 0.0 | 0.0 | 0.00 | 0.87 | 0.00 | 98 | 1010.6 |
| 20260506230702 | 46 | 347 | 0.0 | 0.0 | 0.00 | 0.87 | 0.00 | 98 | 1010.6 |
| 20260506230201 | 46 | 347 | 0.0 | 0.0 | 0.00 | 0.87 | 0.00 | 98 | 1010.6 |
| 20260506225701 | 46 | 347 | 0.0 | 1.0 | 0.00 | 0.87 | 0.00 | 98 | 1010.5 |
| 20260506225201 | 46 | 347 | 0.0 | 0.0 | 0.00 | 0.87 | 0.00 | 98 | 1010.5 |
| 20260506224701 | 46 | 347 | 0.0 | 1.0 | 0.00 | 0.87 | 0.00 | 98 | 1010.4 |
| 20260506224200 | 46 | 347 | 0.0 | 0.0 | 0.00 | 1.08 | 0.00 | 98 | 1010.5 |
| 20260506223700 | 46 | 347 | 0.0 | 1.0 | 0.00 | 1.08 | 0.00 | 97 | 1010.5 |
| 20260506223200 | 46 | 347 | 0.0 | 0.0 | 0.00 | 1.08 | 0.00 | 97 | 1010.4 |
| 20260506222659 | 46 | 347 | 0.0 | 0.0 | 0.00 | 1.08 | 1.11 | 97 | 1010.3 |
| 20260506222159 | 46 | 347 | 0.0 | 1.0 | 0.00 | 1.08 | 1.11 | 97 | 1010.3 |
| 20260506221659 | 46 | 347 | 0.0 | 2.0 | 0.00 | 1.08 | 1.11 | 97 | 1010.3 |
| 20260506221159 | 46 | 347 | 0.0 | 2.0 | 0.00 | 1.08 | 1.11 | 97 | 1010.3 |
| 20260506220658 | 46 | 347 | 0.0 | 2.0 | 0.00 | 1.08 | 1.11 | 97 | 1010.3 |
| 20260506220158 | 46 | 347 | 0.0 | 2.0 | 0.00 | 1.08 | 1.11 | 97 | 1010.3 |
| 20260506215658 | 46 | 347 | 0.0 | 0.0 | 0.00 | 1.08 | 1.11 | 97 | 1010.3 |
| 20260506215158 | 46 | 347 | 1.0 | 3.0 | 0.00 | 1.08 | 1.11 | 97 | 1010.3 |
| 20260506214657 | 46 | 347 | 0.0 | 3.0 | 0.00 | 1.08 | 1.11 | 97 | 1010.3 |
| 20260506214157 | 46 | 355 | 1.0 | 3.0 | 0.00 | 1.20 | 1.11 | 97 | 1010.2 |
| 20260506213657 | 46 | 355 | 1.0 | 3.0 | 0.00 | 1.20 | 1.11 | 97 | 1010.2 |
| 20260506213156 | 46 | 355 | 1.0 | 3.0 | 0.00 | 1.20 | 1.11 | 98 | 1010.1 |
| 20260506212656 | 46 | 17 | 1.0 | 3.0 | 0.00 | 1.20 | 1.11 | 98 | 1010.1 |
| 20260506212156 | 46 | 350 | 1.0 | 4.0 | 0.00 | 1.20 | 1.11 | 98 | 1010.1 |
| 20260506211656 | 46 | 350 | 2.0 | 4.0 | 0.00 | 1.20 | 1.11 | 98 | 1010.1 |
| 20260506211155 | 46 | 5 | 2.0 | 7.0 | 0.00 | 1.20 | 1.11 | 98 | 1010.1 |
| 20260506210655 | 46 | 357 | 1.0 | 4.0 | 0.00 | 1.20 | 1.11 | 98 | 1010.1 |
| 20260506210155 | 46 | 14 | 1.0 | 4.0 | 0.00 | 1.20 | 1.11 | 98 | 1010.1 |
| 20260506205654 | 46 | 349 | 1.0 | 4.0 | 0.00 | 1.20 | 1.11 | 98 | 1010.1 |
| 20260506205154 | 46 | 15 | 1.0 | 4.0 | 0.00 | 1.20 | 1.11 | 98 | 1010.0 |
| 20260506204654 | 46 | 7 | 2.0 | 4.0 | 0.00 | 1.20 | 1.11 | 98 | 1009.9 |
| 20260506204154 | 46 | 69 | 1.0 | 4.0 | 0.00 | 1.22 | 1.11 | 98 | 1010.0 |
| 20260506203653 | 47 | 40 | 1.0 | 3.0 | 0.00 | 1.22 | 1.11 | 98 | 1010.0 |
| 20260506203153 | 47 | 25 | 1.0 | 6.0 | 0.00 | 1.22 | 1.11 | 98 | 1010.0 |
| 20260506202653 | 47 | 69 | 1.0 | 3.0 | 0.00 | 1.22 | 1.11 | 98 | 1009.9 |
| 20260506202152 | 47 | 33 | 1.0 | 5.0 | 0.00 | 1.22 | 1.11 | 98 | 1009.8 |
| 20260506201652 | 47 | 50 | 2.0 | 4.0 | 0.00 | 1.22 | 1.11 | 98 | 1009.9 |
| 20260506201152 | 47 | 7 | 2.0 | 6.0 | 0.00 | 1.22 | 1.11 | 98 | 1009.9 |
| 20260506200652 | 46 | 35 | 1.0 | 3.0 | 0.00 | 1.22 | 1.11 | 98 | 1009.9 |
| 20260506200152 | 46 | 4 | 1.0 | 3.0 | 0.00 | 1.22 | 1.11 | 98 | 1009.8 |
| 20260506195651 | 46 | 4 | 1.0 | 4.0 | 0.00 | 1.22 | 1.11 | 98 | 1009.7 |
| 20260506195151 | 46 | 15 | 1.0 | 3.0 | 0.00 | 1.22 | 1.11 | 98 | 1009.7 |
| 20260506194650 | 46 | 15 | 2.0 | 4.0 | 0.00 | 1.22 | 1.11 | 98 | 1009.6 |
| 20260506194150 | 46 | 33 | 1.0 | 3.0 | 0.00 | 1.22 | 1.11 | 98 | 1009.6 |
| 20260506193650 | 46 | 33 | 1.0 | 3.0 | 0.00 | 1.22 | 1.11 | 98 | 1009.7 |
| 20260506193150 | 46 | 33 | 1.0 | 2.0 | 0.00 | 1.22 | 1.11 | 98 | 1009.7 |
| 20260506192649 | 46 | 33 | 1.0 | 3.0 | 0.00 | 1.22 | 1.11 | 98 | 1009.6 |
| 20260506192149 | 46 | 52 | 1.0 | 3.0 | 0.00 | 1.22 | 1.11 | 98 | 1009.5 |
| 20260506191649 | 46 | 11 | 1.0 | 3.0 | 0.00 | 1.22 | 1.11 | 98 | 1009.4 |
| 20260506191148 | 46 | 23 | 2.0 | 7.0 | 0.00 | 1.22 | 1.11 | 98 | 1009.3 |
| 20260506190648 | 47 | 9 | 1.0 | 4.0 | 0.00 | 1.22 | 1.11 | 98 | 1009.3 |
| 20260506190148 | 47 | 36 | 1.0 | 6.0 | 0.00 | 1.22 | 1.11 | 98 | 1009.2 |
| 20260506185648 | 47 | 15 | 1.0 | 3.0 | 0.00 | 1.22 | 1.11 | 98 | 1009.1 |
| 20260506185147 | 47 | 3 | 2.0 | 2.0 | 0.00 | 1.22 | 1.11 | 98 | 1009.2 |
| 20260506184647 | 47 | 34 | 2.0 | 5.0 | 0.00 | 1.22 | 1.11 | 98 | 1009.1 |
| 20260506184147 | 47 | 33 | 2.0 | 5.0 | 0.00 | 1.22 | 1.11 | 98 | 1009.0 |
| 20260506183646 | 47 | 46 | 2.0 | 6.0 | 0.00 | 1.22 | 1.11 | 98 | 1009.0 |
| 20260506183146 | 47 | 31 | 2.0 | 4.0 | 0.00 | 1.22 | 1.11 | 98 | 1008.9 |
| 20260506182646 | 47 | 11 | 2.0 | 7.0 | 0.00 | 1.22 | 1.11 | 98 | 1008.9 |
| 20260506182146 | 47 | 48 | 2.0 | 5.0 | 0.00 | 1.22 | 1.11 | 98 | 1008.8 |
| 20260506181645 | 47 | 11 | 1.0 | 4.0 | 0.00 | 1.22 | 1.11 | 98 | 1008.8 |
| 20260506181145 | 47 | 25 | 2.0 | 5.0 | 0.00 | 1.22 | 1.11 | 98 | 1008.7 |
| 20260506180645 | 47 | 23 | 2.0 | 7.0 | 0.00 | 1.22 | 1.11 | 98 | 1008.7 |
| 20260506180145 | 47 | 32 | 2.0 | 3.0 | 0.00 | 1.22 | 1.11 | 98 | 1008.5 |
| 20260506175644 | 47 | 31 | 2.0 | 5.0 | 0.00 | 1.22 | 1.11 | 98 | 1008.5 |
| 20260506175144 | 47 | 35 | 2.0 | 9.0 | 0.00 | 1.22 | 1.11 | 98 | 1008.4 |
| 20260506174644 | 47 | 44 | 2.0 | 8.0 | 0.00 | 1.22 | 1.11 | 98 | 1008.4 |
| 20260506174143 | 47 | 8 | 2.0 | 10.0 | 0.00 | 1.22 | 1.11 | 99 | 1008.3 |
| 20260506173643 | 47 | 19 | 2.0 | 6.0 | 0.00 | 1.22 | 1.11 | 99 | 1008.3 |
| 20260506173143 | 48 | 50 | 2.0 | 10.0 | 0.00 | 1.22 | 1.11 | 98 | 1008.2 |
| 20260506172642 | 48 | 27 | 2.0 | 4.0 | 0.00 | 1.22 | 1.11 | 98 | 1008.2 |
| 20260506172142 | 48 | 23 | 2.0 | 6.0 | 0.00 | 1.22 | 1.11 | 99 | 1008.2 |
| 20260506171642 | 48 | 28 | 3.0 | 7.0 | 0.00 | 1.22 | 1.11 | 99 | 1008.1 |
| 20260506171142 | 48 | 10 | 2.0 | 10.0 | 0.00 | 1.22 | 1.11 | 99 | 1008.0 |
| 20260506170641 | 48 | 42 | 1.0 | 3.0 | 0.00 | 1.22 | 1.11 | 99 | 1008.0 |
| 20260506170141 | 48 | 348 | 1.0 | 4.0 | 0.00 | 1.22 | 1.11 | 99 | 1007.9 |
| 20260506165641 | 48 | 12 | 1.0 | 4.0 | 0.00 | 1.22 | 1.11 | 99 | 1007.9 |
| 20260506165141 | 48 | 25 | 1.0 | 5.0 | 0.00 | 1.22 | 1.11 | 99 | 1007.9 |
| 20260506164640 | 48 | 39 | 1.0 | 4.0 | 0.00 | 1.22 | 1.11 | 99 | 1007.9 |
| 20260506164140 | 48 | 58 | 1.0 | 2.0 | 0.00 | 1.22 | 1.11 | 99 | 1007.9 |
| 20260506163640 | 48 | 48 | 2.0 | 5.0 | 0.00 | 1.22 | 1.11 | 99 | 1007.9 |
| 20260506163139 | 48 | 27 | 2.0 | 7.0 | 0.00 | 1.22 | 1.11 | 99 | 1007.9 |
| 20260506162639 | 48 | 17 | 2.0 | 5.0 | 0.00 | 1.22 | 1.11 | 99 | 1007.9 |
| 20260506162139 | 48 | 104 | 1.0 | 5.0 | 0.00 | 1.22 | 1.11 | 99 | 1007.8 |
| 20260506161639 | 48 | 42 | 1.0 | 3.0 | 0.00 | 1.22 | 1.11 | 99 | 1007.7 |
| 20260506161138 | 48 | 36 | 1.0 | 2.0 | 0.00 | 1.22 | 1.11 | 99 | 1007.7 |
| 20260506160638 | 48 | 332 | 2.0 | 4.0 | 0.00 | 1.22 | 1.11 | 99 | 1007.8 |
| 20260506160138 | 48 | 32 | 2.0 | 6.0 | 0.00 | 1.22 | 1.11 | 99 | 1007.8 |
| 20260506155637 | 48 | 11 | 2.0 | 6.0 | 0.00 | 1.22 | 1.11 | 99 | 1007.8 |
| 20260506155137 | 48 | 0 | 2.0 | 8.0 | 0.00 | 1.22 | 1.11 | 99 | 1007.8 |
| 20260506154637 | 49 | 337 | 2.0 | 5.0 | 0.00 | 1.22 | 1.11 | 99 | 1007.7 |
| 20260506154137 | 49 | 358 | 1.0 | 7.0 | 0.00 | 1.22 | 1.11 | 99 | 1007.7 |
| 20260506153636 | 49 | 44 | 1.0 | 4.0 | 0.00 | 1.22 | 1.11 | 99 | 1007.7 |
| 20260506153136 | 49 | 24 | 1.0 | 3.0 | 0.00 | 1.22 | 1.11 | 99 | 1007.7 |
| 20260506152636 | 49 | 13 | 2.0 | 5.0 | 0.00 | 1.22 | 1.11 | 99 | 1007.7 |
| 20260506152135 | 49 | 56 | 1.0 | 4.0 | 0.00 | 1.22 | 1.11 | 99 | 1007.7 |
| 20260506151635 | 49 | 13 | 1.0 | 4.0 | 0.00 | 1.22 | 1.11 | 99 | 1007.6 |
| 20260506151135 | 49 | 11 | 1.0 | 10.0 | 0.00 | 1.22 | 1.11 | 99 | 1007.6 |
| 20260506150635 | 49 | 28 | 1.0 | 3.0 | 0.00 | 1.22 | 1.11 | 99 | 1007.5 |
| 20260506150134 | 49 | 31 | 1.0 | 3.0 | 0.00 | 1.22 | 1.11 | 99 | 1007.5 |
| 20260506145634 | 48 | 14 | 1.0 | 4.0 | 0.00 | 1.22 | 1.11 | 99 | 1007.5 |
| 20260506145134 | 49 | 38 | 1.0 | 4.0 | 0.00 | 1.22 | 1.11 | 99 | 1007.4 |
| 20260506144633 | 49 | 54 | 1.0 | 4.0 | 0.01 | 1.22 | 1.11 | 99 | 1007.4 |
| 20260506144133 | 49 | 4 | 1.0 | 2.0 | 0.01 | 1.22 | 1.11 | 99 | 1007.4 |
| 20260506143633 | 49 | 4 | 1.0 | 3.0 | 0.01 | 1.22 | 1.11 | 99 | 1007.4 |
| 20260506143133 | 49 | 71 | 0.0 | 2.0 | 0.01 | 1.22 | 1.11 | 99 | 1007.4 |
| 20260506142632 | 49 | 78 | 1.0 | 2.0 | 0.01 | 1.22 | 1.11 | 99 | 1007.3 |
| 20260506142132 | 49 | 13 | 1.0 | 3.0 | 0.01 | 1.22 | 1.11 | 99 | 1007.4 |
| 20260506141632 | 48 | 10 | 0.0 | 2.0 | 0.01 | 1.22 | 1.11 | 99 | 1007.4 |
| 20260506141131 | 48 | 67 | 0.0 | 1.0 | 0.01 | 1.22 | 1.11 | 99 | 1007.4 |
| 20260506140631 | 48 | 67 | 1.0 | 2.0 | 0.01 | 1.22 | 1.11 | 99 | 1007.4 |
| 20260506140131 | 48 | 67 | 1.0 | 4.0 | 0.01 | 1.22 | 1.11 | 99 | 1007.4 |
| 20260506135631 | 48 | 67 | 2.0 | 9.0 | 0.01 | 1.22 | 1.11 | 99 | 1007.4 |
| 20260506135130 | 48 | 94 | 1.0 | 4.0 | 0.01 | 1.22 | 1.11 | 99 | 1007.5 |
| 20260506134630 | 48 | 52 | 1.0 | 2.0 | 0.00 | 1.21 | 1.10 | 99 | 1007.4 |
| 20260506134130 | 48 | 358 | 2.0 | 4.0 | 0.01 | 1.21 | 1.10 | 99 | 1007.4 |
| 20260506133630 | 48 | 28 | 2.0 | 6.0 | 0.01 | 1.21 | 1.10 | 99 | 1007.4 |
| 20260506133129 | 48 | 52 | 1.0 | 4.0 | 0.01 | 1.21 | 1.10 | 99 | 1007.4 |
| 20260506132629 | 47 | 34 | 2.0 | 4.0 | 0.02 | 1.21 | 1.10 | 99 | 1007.4 |
| 20260506132129 | 47 | 28 | 2.0 | 7.0 | 0.02 | 1.21 | 1.10 | 99 | 1007.4 |
| 20260506131628 | 47 | 61 | 2.0 | 4.0 | 0.02 | 1.21 | 1.10 | 99 | 1007.3 |
| 20260506131128 | 48 | 23 | 2.0 | 3.0 | 0.02 | 1.21 | 1.10 | 99 | 1007.3 |
| 20260506130628 | 48 | 57 | 1.0 | 7.0 | 0.03 | 1.21 | 1.10 | 99 | 1007.2 |
| 20260506130128 | 48 | 86 | 1.0 | 4.0 | 0.03 | 1.21 | 1.10 | 99 | 1007.3 |
| 20260506125627 | 48 | 133 | 1.0 | 2.0 | 0.03 | 1.21 | 1.10 | 99 | 1007.2 |
| 20260506125127 | 48 | 21 | 2.0 | 7.0 | 0.03 | 1.21 | 1.10 | 99 | 1007.2 |
| 20260506124627 | 48 | 8 | 2.0 | 8.0 | 0.04 | 1.21 | 1.10 | 99 | 1007.3 |
| 20260506124126 | 48 | 353 | 2.0 | 4.0 | 0.03 | 1.20 | 1.09 | 99 | 1007.2 |
| 20260506123626 | 48 | 6 | 2.0 | 4.0 | 0.04 | 1.20 | 1.09 | 99 | 1007.1 |
| 20260506123126 | 47 | 11 | 2.0 | 6.0 | 0.04 | 1.20 | 1.09 | 99 | 1007.1 |
| 20260506122626 | 47 | 46 | 2.0 | 3.0 | 0.04 | 1.19 | 1.08 | 99 | 1007.1 |
| 20260506122125 | 47 | 32 | 2.0 | 7.0 | 0.05 | 1.19 | 1.08 | 99 | 1007.0 |
| 20260506121625 | 47 | 6 | 1.0 | 4.0 | 0.06 | 1.19 | 1.08 | 99 | 1007.0 |
| 20260506121125 | 47 | 32 | 2.0 | 4.0 | 0.07 | 1.19 | 1.08 | 98 | 1007.0 |
| 20260506120624 | 47 | 354 | 2.0 | 7.0 | 0.07 | 1.18 | 1.07 | 98 | 1006.9 |
| 20260506120124 | 47 | 23 | 2.0 | 6.0 | 0.08 | 1.18 | 1.07 | 99 | 1006.9 |
| 20260506115624 | 47 | 79 | 2.0 | 6.0 | 0.09 | 1.18 | 1.07 | 99 | 1006.8 |
| 20260506115124 | 47 | 54 | 2.0 | 5.0 | 0.09 | 1.18 | 1.07 | 99 | 1006.8 |
| 20260506114623 | 47 | 27 | 2.0 | 7.0 | 0.09 | 1.17 | 1.06 | 99 | 1006.7 |
| 20260506114123 | 47 | 23 | 2.0 | 7.0 | 0.09 | 1.18 | 1.06 | 99 | 1006.7 |
| 20260506113623 | 47 | 13 | 2.0 | 6.0 | 0.08 | 1.17 | 1.05 | 99 | 1006.7 |
| 20260506113122 | 48 | 44 | 2.0 | 4.0 | 0.09 | 1.17 | 1.05 | 99 | 1006.7 |
| 20260506112622 | 48 | 14 | 2.0 | 4.0 | 0.08 | 1.16 | 1.04 | 99 | 1006.8 |
| 20260506112122 | 48 | 55 | 2.0 | 5.0 | 0.08 | 1.15 | 1.03 | 99 | 1006.7 |
| 20260506111622 | 48 | 13 | 2.0 | 4.0 | 0.07 | 1.14 | 1.02 | 99 | 1006.7 |
| 20260506111121 | 48 | 358 | 1.0 | 6.0 | 0.06 | 1.13 | 1.01 | 99 | 1006.7 |
| 20260506110621 | 48 | 18 | 1.0 | 3.0 | 0.06 | 1.12 | 1.00 | 99 | 1006.6 |
| 20260506110121 | 48 | 54 | 1.0 | 4.0 | 0.05 | 1.11 | 0.99 | 99 | 1006.6 |
| 20260506105620 | 48 | 2 | 1.0 | 6.0 | 0.05 | 1.10 | 0.98 | 99 | 1006.6 |
| 20260506105120 | 48 | 135 | 1.0 | 3.0 | 0.05 | 1.10 | 0.98 | 99 | 1006.6 |
| 20260506104620 | 48 | 23 | 2.0 | 6.0 | 0.05 | 1.09 | 0.97 | 99 | 1006.6 |
| 20260506104120 | 48 | 31 | 2.0 | 7.0 | 0.05 | 1.09 | 0.97 | 99 | 1006.5 |
| 20260506103619 | 48 | 5 | 2.0 | 4.0 | 0.06 | 1.09 | 0.97 | 99 | 1006.5 |
| 20260506103119 | 47 | 44 | 2.0 | 5.0 | 0.05 | 1.08 | 0.96 | 99 | 1006.4 |
| 20260506102619 | 48 | 32 | 2.0 | 4.0 | 0.05 | 1.08 | 0.96 | 99 | 1006.4 |
| 20260506102118 | 48 | 36 | 2.0 | 4.0 | 0.05 | 1.07 | 0.95 | 99 | 1006.3 |
| 20260506101618 | 48 | 30 | 2.0 | 3.0 | 0.06 | 1.07 | 0.95 | 99 | 1006.3 |
| 20260506101118 | 48 | 23 | 2.0 | 3.0 | 0.06 | 1.07 | 0.95 | 99 | 1006.2 |
| 20260506100618 | 47 | 34 | 2.0 | 6.0 | 0.06 | 1.06 | 0.94 | 99 | 1006.2 |
| 20260506100117 | 47 | 29 | 2.0 | 8.0 | 0.06 | 1.06 | 0.94 | 99 | 1006.2 |
| 20260506095617 | 48 | 2 | 2.0 | 3.0 | 0.05 | 1.05 | 0.93 | 99 | 1006.1 |
| 20260506095117 | 48 | 40 | 2.0 | 7.0 | 0.06 | 1.05 | 0.93 | 99 | 1006.1 |
| 20260506094617 | 48 | 76 | 2.0 | 6.0 | 0.05 | 1.04 | 0.92 | 99 | 1006.0 |
| 20260506094116 | 48 | 355 | 2.0 | 6.0 | 0.05 | 1.04 | 0.92 | 99 | 1006.0 |
| 20260506093616 | 48 | 24 | 2.0 | 7.0 | 0.05 | 1.03 | 0.91 | 99 | 1006.0 |
| 20260506093116 | 48 | 21 | 3.0 | 9.0 | 0.05 | 1.03 | 0.91 | 99 | 1006.0 |
| 20260506092615 | 48 | 16 | 3.0 | 7.0 | 0.05 | 1.03 | 0.91 | 99 | 1006.0 |
| 20260506092115 | 48 | 17 | 3.0 | 9.0 | 0.04 | 1.02 | 0.90 | 98 | 1006.0 |
| 20260506091615 | 48 | 16 | 3.0 | 8.0 | 0.04 | 1.01 | 0.89 | 99 | 1005.8 |
| 20260506091115 | 48 | 30 | 3.0 | 6.0 | 0.04 | 1.01 | 0.89 | 99 | 1005.8 |
| 20260506090614 | 48 | 18 | 2.0 | 6.0 | 0.03 | 1.00 | 0.88 | 99 | 1005.8 |
| 20260506090114 | 49 | 352 | 2.0 | 7.0 | 0.03 | 1.00 | 0.88 | 99 | 1005.8 |
| 20260506085614 | 49 | 23 | 2.0 | 6.0 | 0.03 | 1.00 | 0.88 | 99 | 1005.7 |
| 20260506085113 | 49 | 15 | 2.0 | 7.0 | 0.02 | 0.99 | 0.87 | 99 | 1005.7 |
| 20260506084613 | 48 | 21 | 3.0 | 7.0 | 0.03 | 0.99 | 0.87 | 99 | 1005.7 |
| 20260506084113 | 48 | 42 | 3.0 | 6.0 | 0.03 | 0.99 | 0.87 | 99 | 1005.6 |
| 20260506083613 | 49 | 33 | 2.0 | 9.0 | 0.02 | 0.98 | 0.86 | 99 | 1005.6 |
| 20260506083112 | 49 | 13 | 2.0 | 4.0 | 0.03 | 0.98 | 0.86 | 99 | 1005.6 |
| 20260506082612 | 49 | 77 | 2.0 | 4.0 | 0.03 | 0.98 | 0.86 | 99 | 1005.5 |
| 20260506082112 | 49 | 19 | 2.0 | 5.0 | 0.03 | 0.98 | 0.86 | 99 | 1005.5 |
| 20260506081611 | 49 | 31 | 2.0 | 7.0 | 0.03 | 0.97 | 0.85 | 99 | 1005.5 |
| 20260506081111 | 49 | 29 | 1.0 | 4.0 | 0.04 | 0.97 | 0.85 | 99 | 1005.5 |
| 20260506080611 | 49 | 20 | 2.0 | 3.0 | 0.04 | 0.97 | 0.85 | 99 | 1005.5 |
| 20260506080111 | 49 | 38 | 3.0 | 6.0 | 0.05 | 0.97 | 0.85 | 99 | 1005.4 |
| 20260506073109 | 49 | 94 | 1.0 | 7.0 | 0.06 | 0.95 | 0.83 | 99 | 1005.3 |
| 20260506072609 | 49 | 31 | 1.0 | 6.0 | 0.07 | 0.95 | 0.83 | 99 | 1005.3 |
| 20260506072108 | 49 | 23 | 1.0 | 2.0 | 0.08 | 0.95 | 0.83 | 99 | 1005.3 |
| 20260506071608 | 49 | 23 | 1.0 | 3.0 | 0.07 | 0.94 | 0.82 | 99 | 1005.2 |
| 20260506071108 | 49 | 11 | 0.0 | 1.0 | 0.07 | 0.93 | 0.81 | 99 | 1005.2 |
| 20260506070608 | 49 | 11 | 1.0 | 3.0 | 0.07 | 0.93 | 0.81 | 99 | 1005.2 |
| 20260506070107 | 49 | 36 | 0.0 | 5.0 | 0.07 | 0.92 | 0.80 | 99 | 1005.2 |
| 20260506062105 | 49 | 346 | 2.0 | 5.0 | 0.08 | 0.98 | 0.75 | 99 | 1005.1 |
| 20260506061605 | 49 | 38 | 2.0 | 4.0 | 0.09 | 0.98 | 0.75 | 99 | 1005.1 |
| 20260506061104 | 49 | 25 | 2.0 | 5.0 | 0.09 | 0.97 | 0.74 | 99 | 1005.0 |
| 20260506060604 | 48 | 34 | 2.0 | 5.0 | 0.09 | 0.97 | 0.74 | 98 | 1005.0 |
| 20260506060104 | 48 | 15 | 2.0 | 7.0 | 0.09 | 0.96 | 0.73 | 99 | 1005.0 |
| 20260506051101 | 49 | 24 | 2.0 | 7.0 | 0.07 | 1.07 | 0.65 | 98 | 1004.9 |
| 20260506050601 | 49 | 5 | 1.0 | 6.0 | 0.07 | 1.07 | 0.65 | 98 | 1004.9 |
| 20260506045100 | 49 | 314 | 1.0 | 3.0 | 0.05 | 1.04 | 0.62 | 98 | 1004.9 |
| 20260506044600 | 49 | 2 | 2.0 | 4.0 | 0.05 | 1.03 | 0.61 | 98 | 1004.8 |
| 20260506044059 | 49 | 24 | 2.0 | 4.0 | 0.05 | 1.06 | 0.61 | 98 | 1004.8 |
| 20260506043559 | 49 | 34 | 2.0 | 5.0 | 0.05 | 1.05 | 0.60 | 98 | 1004.8 |
| 20260506043059 | 49 | 23 | 2.0 | 4.0 | 0.05 | 1.05 | 0.60 | 98 | 1004.8 |
| 20260506042558 | 49 | 22 | 2.0 | 3.0 | 0.04 | 1.04 | 0.59 | 98 | 1004.8 |
| 20260506042058 | 49 | 323 | 2.0 | 3.0 | 0.04 | 1.04 | 0.59 | 98 | 1004.8 |
| 20260506041558 | 49 | 25 | 2.0 | 5.0 | 0.05 | 1.04 | 0.59 | 98 | 1004.7 |
| 20260506041058 | 49 | 2 | 2.0 | 2.0 | 0.04 | 1.03 | 0.58 | 98 | 1004.8 |
| 20260506040557 | 49 | 15 | 1.0 | 4.0 | 0.05 | 1.03 | 0.58 | 98 | 1004.8 |
| 20260506040057 | 49 | 335 | 1.0 | 2.0 | 0.04 | 1.02 | 0.57 | 98 | 1004.8 |
| 20260506035557 | 49 | 304 | 1.0 | 4.0 | 0.05 | 1.02 | 0.57 | 98 | 1004.8 |
| 20260506035056 | 49 | 21 | 1.0 | 3.0 | 0.06 | 1.02 | 0.57 | 98 | 1004.8 |
| 20260506034556 | 49 | 337 | 1.0 | 8.0 | 0.05 | 1.01 | 0.56 | 98 | 1004.8 |
| 20260506034056 | 49 | 33 | 1.0 | 2.0 | 0.06 | 1.06 | 0.56 | 98 | 1004.8 |
| 20260506033556 | 49 | 21 | 1.0 | 4.0 | 0.05 | 1.05 | 0.55 | 98 | 1004.8 |
| 20260506033055 | 49 | 15 | 1.0 | 4.0 | 0.06 | 1.05 | 0.55 | 98 | 1004.9 |